User: anonymous   Login
Location: Oronoko Observatory
(41.9167°N, 86.3833°W)
Time: 17:14:34
(UTC-05:00)
Language:

PAYLOAD A - Orbit

View from above orbital plane
View from above orbital plane
View from above satellite
View from above satellite

Ground track
Ground track

The orbit data is extracted from the following two-line orbital elements,

1 27840U 03031A   15028.25150676  .00000051  00000-0  29381-4 0  7560
2 27840 098.2175 052.6514 0097831 223.8023 211.6731 14.38770047608079
Epoch (UTC): 28 January 2015 06:02:10
Eccentricity: 0.0097831
inclination: 98.2175°
perigee height: 693 km
apogee height: 832 km
right ascension of ascending node: 52.6514°
argument of perigee: 223.8023°
revolutions per day: 14.38770047
mean anomaly at epoch: 211.6731°
orbit number at epoch: 60807

The dashed part of the orbit path shows where the satellite is in the earth's shadow,  

DLR